Tel Aviv, Israel

9:42 PM IST on November 19, 2017 (GMT +0200)
Ben Gurion

Weather History for LLBG - November, 2017

Change the Weather History Date:

Tuesday, November 14, 2017

  Actual Average Record
Temperature  
Mean Temperature 68 °F -  
Max Temperature 81 °F 70 °F 96 °F (2010)
Min Temperature 56 °F 53 °F 51 °F (1996)
Cooling Degree Days 4    
Growing Degree Days 18 (Base 50)    
Moisture  
Dew Point 52 °F    
Average Humidity 56    
Maximum Humidity 72    
Minimum Humidity 28    
Precipitation  
Precipitation 0.00 in - - ()
Sea Level Pressure  
Sea Level Pressure 30.02 in    
Wind  
Wind Speed 4 mph ()    
Max Wind Speed 12 mph    
Max Gust Speed -    
Visibility 6.0 miles    
Events      
Averages and records for this station are not official NWS values.
T = Trace of Precipitation, MM = Missing Value Source: Averaged Metar Reports

Daily Weather History Graph

Daily Weather History Graph

Search for Another Location

Airport or City:

Trip Planner

Search our weather history database for the weather conditions in past years. The results will help you decide how hot, cold, wet, or windy it might be!

Date:

Astronomy

Nov. 14, 2017 Rise Set
Actual Time 6:08 AM IST 4:41 PM IST
Civil Twilight 5:42 AM IST 5:07 PM IST
Nautical Twilight 5:12 AM IST 5:36 PM IST
Astronomical Twilight 4:43 AM IST 6:05 PM IST
Moon 2:06 AM IST (11/14) 2:38 PM IST (11/14)
Length of Visible Light 11h 24m
Length of Day
10h 33m
Waning Crescent, 16% of the Moon is Illuminated
Nov 14
Waning Crescent
Nov 18
New
Nov 26
First Quarter
Dec 3
Full
Dec 10
Last Quarter

Hourly Weather History & Observations

Time (IST) Temp. Dew Point Humidity Pressure Visibility Wind Dir Wind Speed Gust Speed Precip Events Conditions
12:20 AM 62.6 °F 51.8 °F 68% 29.98 in - Variable 1.2 mph - N/A   Clear
12:50 AM 62.6 °F 51.8 °F 68% 29.98 in - East 4.6 mph - N/A   Clear
1:20 AM 62.6 °F 50.0 °F 63% 29.98 in - ESE 5.8 mph - N/A   Clear
1:50 AM 62.6 °F 50.0 °F 63% 29.98 in - ESE 5.8 mph - N/A   Clear
2:00 AM 62 °F 49 °F 54% 29.98 in 6 mi ESE 4.6 mph - -  
2:20 AM 60.8 °F 50.0 °F 68% 29.98 in - Variable 2.3 mph - N/A   Clear
2:50 AM 62.6 °F 50.0 °F 63% 29.98 in - Variable 3.5 mph - N/A   Clear
3:20 AM 59.0 °F 50.0 °F 72% 29.98 in - Variable 1.2 mph - N/A   Clear
3:50 AM 59.0 °F 48.2 °F 67% 29.98 in - Variable 2.3 mph - N/A   Clear
4:20 AM 57.2 °F 46.4 °F 67% 29.98 in - Variable 3.5 mph - N/A   Clear
4:50 AM 57.2 °F 48.2 °F 72% 29.98 in - Variable 1.2 mph - N/A   Clear
5:20 AM 57.2 °F 46.4 °F 67% 29.98 in - Variable 1.2 mph - N/A   Clear
5:50 AM 57.2 °F 48.2 °F 72% 29.98 in - Variable 3.5 mph - N/A   Clear
6:20 AM 57.2 °F 46.4 °F 67% 30.01 in - Variable 3.5 mph - N/A   Clear
6:50 AM 57.2 °F 46.4 °F 67% 30.01 in - East 4.6 mph - N/A   Clear
7:20 AM 59.0 °F 48.2 °F 67% 30.01 in - Variable 3.5 mph - N/A   Clear
7:50 AM 62.6 °F 48.2 °F 59% 30.04 in - Variable 2.3 mph - N/A   Clear
8:00 AM 62 °F 48 °F 50% 30.04 in 6 mi 2.3 mph - -   Clear
8:50 AM 69.8 °F 48.2 °F 46% 30.04 in - Variable 1.2 mph - N/A   Clear
9:20 AM 73.4 °F 48.2 °F 41% 30.04 in - Variable 2.3 mph - N/A   Clear
9:50 AM 75.2 °F 51.8 °F 44% 30.04 in - Variable 2.3 mph - N/A   Clear
10:20 AM 77.0 °F 53.6 °F 44% 30.04 in - Variable 2.3 mph - N/A   Clear
10:50 AM 77.0 °F 51.8 °F 41% 30.01 in - Variable 3.5 mph - N/A   Clear
11:00 AM 78 °F 51 °F 28% 30.03 in 6 mi 3.5 mph - -   Clear
11:20 AM 78.8 °F 48.2 °F 34% 30.01 in - Variable 3.5 mph - N/A   Clear
11:50 AM 78.8 °F 48.2 °F 34% 30.01 in - West 4.6 mph - N/A   Clear
12:20 PM 78.8 °F 53.6 °F 42% 29.98 in - WSW 4.6 mph - N/A   Clear
12:50 PM 78.8 °F 53.6 °F 42% 29.98 in - WSW 6.9 mph - N/A   Clear
1:20 PM 78.8 °F 53.6 °F 42% 29.98 in - West 9.2 mph - N/A   Clear
1:50 PM 78.8 °F 53.6 °F 42% 29.98 in - West 10.4 mph - N/A   Clear
2:00 PM 79 °F 54 °F 31% 30.00 in 6 mi West 10.4 mph - -  
2:20 PM 77.0 °F 53.6 °F 44% 30.01 in - West 10.4 mph - N/A   Clear
2:50 PM 77.0 °F 53.6 °F 44% 30.01 in - West 10.4 mph - N/A   Clear
3:20 PM 75.2 °F 53.6 °F 47% 30.01 in - WNW 11.5 mph - N/A   Clear
3:50 PM 75.2 °F 53.6 °F 47% 30.01 in - West 10.4 mph - N/A   Clear
4:20 PM 73.4 °F 57.2 °F 57% 30.01 in - WNW 8.1 mph - N/A   Clear
4:50 PM 71.6 °F 57.2 °F 60% 30.01 in - Variable 2.3 mph - N/A   Clear
5:00 PM 72 °F 57 °F 49% 30.03 in 6 mi 3.5 mph - -   Clear
5:20 PM 71.6 °F 57.2 °F 60% 30.04 in - Variable 2.3 mph - N/A   Clear
5:50 PM 71.6 °F 57.2 °F 60% 30.04 in - Variable 1.2 mph - N/A   Clear
6:20 PM 69.8 °F 57.2 °F 64% 30.04 in - Variable 1.2 mph - N/A   Clear
6:50 PM 69.8 °F 55.4 °F 60% 30.06 in - Variable 2.3 mph - N/A   Clear
7:20 PM 69.8 °F 57.2 °F 64% 30.06 in - Variable 1.2 mph - N/A   Clear
7:50 PM 68.0 °F 55.4 °F 64% 30.06 in - Variable 3.5 mph - N/A   Clear
8:00 PM 69 °F 56 °F 53% 30.07 in 6 mi 3.5 mph - -   Clear
8:20 PM 68.0 °F 55.4 °F 64% 30.06 in - Variable 3.5 mph - N/A   Clear
8:50 PM 66.2 °F 55.4 °F 68% 30.06 in - Variable 1.2 mph - N/A   Clear
9:20 PM 66.2 °F 53.6 °F 64% 30.06 in - Variable 2.3 mph - N/A   Clear
9:50 PM 64.4 °F 51.8 °F 64% 30.06 in - ENE 4.6 mph - N/A   Clear
10:20 PM 64.4 °F 51.8 °F 64% 30.06 in - Variable 1.2 mph - N/A   Clear
10:50 PM 64.4 °F 51.8 °F 64% 30.06 in - Variable 2.3 mph - N/A   Clear
11:00 PM 64 °F 52 °F 56% 30.08 in 6 mi 2.3 mph - -  
11:20 PM 62.6 °F 51.8 °F 68% 30.06 in - Variable 2.3 mph - N/A   Clear
11:50 PM 62.6 °F 51.8 °F 68% 30.06 in - Variable 2.3 mph - N/A   Clear